Location: Bullenkuhlen
(53.7689°N, 9.7495°E)
Time: 23:02:55
(UTC+00:00)

Cosmos 2058 Rocket - Pass Details

Date: 09 April 2020
Orbit: 610 x 640 km, 82.5° (Epoch: 26 May)

Event Time Altitude Azimuth Distance (km) Brightness Sun altitude
Rises 18:54:31 0° 173° (S) 2,935 6.2 -6.7°
Reaches altitude 10° 18:56:48 10° 168° (SSE) 2,030 5.4 -7.0°
Maximum altitude 19:01:08 48° 94° (E) 838 3.4 -7.6°
Drops below altitude 10° 19:05:29 10° 21° (NNE) 2,037 5.8 -8.2°
Sets 19:07:47 0° 16° (NNE) 2,947 6.7 -8.5°
